This is the latest recevied weather packets stored in our database for station/object OK1CBR-13. If no packets are shown the sender has not sent any weather packets the latest 10 day(s).
| Time | Temp. | Humidity | Pressure | Rain* | Wind** | Luminosity | Snow |
|---|---|---|---|---|---|---|---|
| 1778020653 | 16.11° C | 92% | 1006.5 hPa | - | - | - | - |
| 1778020053 | 16.67° C | 90% | 1006.5 hPa | - | - | - | - |
| 1778019453 | 16.67° C | 89% | 1006.3 hPa | - | - | - | - |
| 1778018853 | 17.22° C | 86% | 1006.2 hPa | - | - | - | - |
| 1778018253 | 17.22° C | 84% | 1005.9 hPa | - | - | - | - |
| 1778017653 | 17.78° C | 80% | 1005.4 hPa | - | - | - | - |
| 1778017053 | 17.78° C | 80% | 1004.9 hPa | - | - | - | - |
| 1778016453 | 17.78° C | 80% | 1005 hPa | - | - | - | - |
| 1778015853 | 17.78° C | 80% | 1005 hPa | - | - | - | - |
| 1778015254 | 17.78° C | 77% | 1004.9 hPa | - | - | - | - |
| 1778014653 | 17.78° C | 76% | 1005 hPa | - | - | - | - |
| 1778014053 | 17.22° C | 76% | 1004.9 hPa | - | - | - | - |
| 1778013453 | 17.22° C | 77% | 1004.9 hPa | - | - | - | - |
| 1778012853 | 17.22° C | 78% | 1004.8 hPa | - | - | - | - |
| 1778012253 | 17.22° C | 77% | 1004.9 hPa | - | - | - | - |
| 1778011653 | 17.22° C | 79% | 1004.8 hPa | - | - | - | - |
| 1778011053 | 17.22° C | 80% | 1005 hPa | - | - | - | - |
| 1778010454 | 17.22° C | 80% | 1005 hPa | - | - | - | - |
| 1778009253 | 17.22° C | 83% | 1004.7 hPa | - | - | - | - |
| 1778008654 | 17.22° C | 82% | 1004.7 hPa | - | - | - | - |
| 1778008054 | 17.22° C | 80% | 1004.6 hPa | - | - | - | - |
| 1778007454 | 17.22° C | 80% | 1004.5 hPa | - | - | - | - |
| 1778006854 | 17.22° C | 78% | 1004.6 hPa | - | - | - | - |
| 1778006254 | 17.22° C | 78% | 1004.6 hPa | - | - | - | - |
| 1778005654 | 17.22° C | 80% | 1004.6 hPa | - | - | - | - |
* Rain since midnight (hover to see other rain measurements)
** Current wind speed in m/s (hover to see current wind gust speed)